This is the latest recevied weather packets stored in our database for station/object KB1WCR. If no packets are shown the sender has not sent any weather packets the latest 10 day(s).
| Time | Temp. | Humidity | Pressure | Rain* | Wind** | Luminosity | Snow |
|---|---|---|---|---|---|---|---|
| 1787884081 | 21.11° C | 83% | 1016.1 hPa | 0 mm | - | 0 W/m² | - |
| 1787883776 | 21.11° C | 83% | 1015.9 hPa | 0 mm | - | 0 W/m² | - |
| 1787883472 | 21.11° C | 83% | 1016 hPa | 0 mm | - | 0 W/m² | - |
| 1787883170 | 21.11° C | 83% | 1016 hPa | 0 mm | - | 0 W/m² | - |
| 1787882866 | 21.11° C | 83% | 1015.8 hPa | 0 mm | - | 0 W/m² | - |
| 1787882563 | 20.56° C | 83% | 1015.9 hPa | 0 mm | - | 0 W/m² | - |
| 1787882258 | 20° C | 84% | 1016 hPa | 0 mm | - | 0 W/m² | - |
| 1787881952 | 20° C | 87% | 1015.8 hPa | 0 mm | - | 0 W/m² | - |
| 1787881647 | 20.56° C | 85% | 1015.9 hPa | 0 mm | - | 0 W/m² | - |
| 1787881344 | 20.56° C | 85% | 1015.9 hPa | 0 mm | - | 0 W/m² | - |
| 1787881039 | 20.56° C | 83% | 1016 hPa | 0 mm | - | 0 W/m² | - |
| 1787880734 | 21.11° C | 84% | 1015.9 hPa | 0 mm | - | 0 W/m² | - |
| 1787880432 | 21.11° C | 83% | 1015.9 hPa | 0 mm | - | 0 W/m² | - |
| 1787880126 | 21.11° C | 84% | 1016.2 hPa | 0 mm | - | 0 W/m² | - |
| 1787879821 | 20.56° C | 85% | 1016.1 hPa | 0 mm | - | 0 W/m² | - |
| 1787879512 | 20.56° C | 87% | 1016.3 hPa | 0 mm | - | 0 W/m² | - |
| 1787879206 | 20.56° C | 86% | 1016.4 hPa | 0 mm | - | 0 W/m² | - |
| 1787878904 | 20.56° C | 88% | 1016.2 hPa | 0 mm | - | 0 W/m² | - |
| 1787878602 | 20.56° C | 88% | 1016.3 hPa | 0 mm | - | 0 W/m² | - |
| 1787878297 | 20.56° C | 86% | 1016.2 hPa | 0 mm | - | 0 W/m² | - |
| 1787877993 | 21.11° C | 86% | 1016 hPa | 0 mm | - | 0 W/m² | - |
| 1787877688 | 20.56° C | 87% | 1015.9 hPa | 0 mm | - | 0 W/m² | - |
| 1787877384 | 20.56° C | 87% | 1015.7 hPa | 0 mm | - | 0 W/m² | - |
| 1787877080 | 21.11° C | 88% | 1015.8 hPa | 0 mm | - | 0 W/m² | - |
| 1787876774 | 20.56° C | 89% | 1015.8 hPa | 0 mm | - | 0 W/m² | - |
* Rain latest hour (hover to see other rain measurements)
** Current wind speed in m/s (hover to see current wind gust speed)